Location: Huntsville
(41.2590°N, 111.7678°W)
Time: 00:00:46
(UTC+00:00)

ISS - Pass Details

Date: 03 December 2021
Orbit: 413 x 422 km, 51.6° (Epoch: 25 January)

Event Time Altitude Azimuth Distance (km) Brightness Sun altitude
Rises 00:29:56 0° 306° (NW) 2,387 0.5 -6.1°
Reaches altitude 10° 00:32:41 10° 330° (NNW) 1,518 -0.8 -6.6°
Maximum altitude 00:34:50 16° 9° (N) 1,214 -1.7 -7.0°
Drops below altitude 10° 00:37:00 10° 49° (NE) 1,512 -1.5 -7.3°
Enters shadow 00:37:16 - 52° (NE) 1,584 -1.5 -7.4°
